K5RG-3 Weather Reports


time (UTC)temp
C
wind
direction
speed
KPH
gust
KPH
rain 1hr
cm
rain 24hr
cm
rain mn
cm
humidity
%
barometer
mb
20260905100049 26 267 0.0 0.0 0.00 0.99 0.00 93 1010.7
20260905094600 26 267 0.0 0.0 0.00 0.99 0.00 93 1010.7
20260905093046 26 267 0.0 0.0 0.00 0.99 0.00 93 1010.6
20260905091547 26 267 0.0 0.0 0.00 0.99 0.00 93 1010.5
20260905090043 26 267 0.0 0.0 0.00 0.99 0.00 92 1010.6
20260905084545 26 267 0.0 0.0 0.00 0.99 0.00 92 1010.4
20260905083041 26 267 0.0 0.0 0.00 0.99 0.00 92 1010.3
20260905081543 26 267 0.0 0.0 0.00 0.99 0.00 92 1010.3
20260905080051 26 267 0.0 0.0 0.00 0.99 0.00 92 1010.4
20260905074538 26 267 0.0 0.0 0.00 0.99 0.00 92 1010.4
20260905073044 26 267 0.0 0.0 0.00 0.99 0.00 91 1010.5
20260905071535 26 267 0.0 0.0 0.00 0.99 0.00 91 1010.7
20260905070043 26 267 0.0 3.2 0.00 0.99 0.00 91 1010.9
20260905064531 26 267 0.0 3.2 0.00 0.99 0.00 91 1011.1
20260905063029 26 151 0.0 0.0 0.00 0.99 0.00 91 1011.1
20260905061547 27 152 0.0 0.0 0.00 0.99 0.00 91 1011.2
20260905060028 27 151 0.0 0.0 0.00 0.99 0.00 90 1011.2
20260905054529 27 151 0.0 0.0 0.00 0.99 0.00 90 1011.3
20260905053027 27 151 0.0 0.0 0.00 0.99 0.00 89 1011.2
20260905051532 27 151 0.0 0.0 0.00 0.99 0.00 89 1011.3
20260905050023 27 151 0.0 0.0 0.00 0.99 0.00 89 1011.2
20260905044524 27 151 0.0 0.0 0.00 0.99 0.99 89 1011.4
20260905043135 27 151 0.0 0.0 0.00 0.99 0.99 89 1011.3
20260905041520 27 151 0.0 0.0 0.00 0.99 0.99 89 1011.5
20260905040021 27 151 0.0 0.0 0.00 0.99 0.99 88 1011.6
20260905034526 28 151 0.0 0.0 0.00 0.99 0.99 88 1011.7
20260905033018 28 151 0.0 0.0 0.00 0.99 0.99 88 1011.5
20260905031518 28 151 0.0 0.0 0.00 0.99 0.99 88 1011.8
20260905030018 28 151 0.0 0.0 0.00 0.99 0.99 87 1011.8
20260905024517 28 151 0.0 0.0 0.00 0.99 0.99 86 1011.6
20260905023017 28 151 0.0 0.0 0.00 0.99 0.99 85 1011.5
20260905021515 28 151 0.0 0.0 0.00 0.99 0.99 84 1011.4
20260905020016 28 151 0.0 0.0 0.00 0.99 0.99 84 1011.1
20260905014519 29 151 0.0 0.0 0.00 0.99 0.99 83 1011.0
20260905013014 29 151 0.0 0.0 0.00 0.99 0.99 82 1010.9
20260905011514 29 151 0.0 0.0 0.00 0.99 0.99 81 1010.8
20260905010018 30 151 0.0 0.0 0.00 0.99 0.99 80 1010.6
20260905004514 30 151 0.0 1.6 0.00 0.99 0.99 80 1010.5
20260905003019 30 142 0.0 3.2 0.00 0.99 0.99 80 1010.4
20260905001513 30 160 0.0 1.6 0.00 0.99 0.99 79 1010.5
20260905000028 31 210 0.0 3.2 0.00 0.99 0.99 79 1010.4
20260904234511 31 163 0.0 0.0 0.00 0.99 0.99 79 1010.4
20260904233011 31 131 0.0 4.8 0.00 0.99 0.99 78 1010.3
20260904231512 31 130 0.0 3.2 0.00 0.99 0.99 78 1010.4
20260904230013 31 127 0.0 3.2 0.00 0.99 0.99 77 1010.3
20260904224516 31 131 1.6 4.8 0.00 0.99 0.99 75 1010.4
20260904223013 32 171 0.0 3.2 0.00 0.99 0.99 74 1010.4
20260904221510 31 138 0.0 3.2 0.00 0.99 0.99 73 1010.2
20260904220013 31 154 0.0 3.2 0.00 0.99 0.99 74 1010.2
20260904214513 31 101 1.6 20.9 0.00 0.99 0.99 77 1010.4
20260904213005 31 115 0.0 4.8 0.00 0.99 0.99 77 1010.5
20260904211508 31 167 0.0 6.4 0.00 0.99 0.99 75 1010.6
20260904210004 31 130 1.6 6.4 0.00 1.02 0.99 77 1010.9
20260904204503 29 141 0.0 0.0 0.00 1.02 0.99 82 1011.0
20260904203003 27 133 0.0 1.6 0.03 1.02 0.99 87 1011.2
20260904201502 27 50 0.0 1.6 0.30 1.02 0.99 94 1011.5
20260904200006 26 50 0.0 3.2 0.94 1.27 0.99 93 1011.5
20260904194502 26 327 0.0 0.0 0.99 1.27 0.99 94 1011.7
20260904193002 25 40 0.0 6.4 0.97 1.24 0.97 91 1011.9
20260904191558 25 215 1.6 12.9 0.71 0.99 0.71 84 1012.2
20260904190055 28 143 1.6 9.7 0.05 0.33 0.05 82 1012.6
20260904184558 31 67 0.0 0.0 0.00 0.28 0.00 76 1012.3
20260904183113 32 310 1.6 8.0 0.00 0.28 0.00 74 1012.3
20260904181551 31 81 0.0 4.8 0.00 0.28 0.00 73 1012.5
20260904180114 32 72 3.2 11.3 0.00 0.28 0.00 73 1012.7
20260904174557 32 71 1.6 12.9 0.00 0.28 0.00 73 1012.9
20260904173047 31 176 0.0 4.8 0.00 0.28 0.00 74 1013.0
20260904171546 31 257 0.0 3.2 0.00 0.28 0.00 78 1013.0
20260904170046 30 111 0.0 6.4 0.00 0.28 0.00 79 1013.1
20260904164535 29 171 0.0 0.0 0.00 0.28 0.00 81 1013.3
20260904163031 28 163 0.0 1.6 0.00 0.28 0.00 81 1013.3
20260904161530 28 168 0.0 3.2 0.00 0.28 0.00 81 1013.4
20260904160026 28 75 0.0 8.0 0.00 0.28 0.00 82 1013.2
20260904154528 28 118 0.0 6.4 0.00 0.28 0.00 83 1013.2
20260904153025 28 105 0.0 4.8 0.00 0.28 0.00 86 1013.2
20260904151521 28 131 0.0 6.4 0.00 0.28 0.00 86 1012.8
20260904150028 28 88 0.0 4.8 0.00 0.28 0.00 87 1012.7
20260904144516 28 129 3.2 16.1 0.00 0.28 0.00 87 1012.7
20260904143012 28 128 1.6 6.4 0.00 0.28 0.00 88 1012.6
20260904141516 28 79 0.0 1.6 0.00 0.28 0.00 88 1012.4
20260904140021 27 79 0.0 0.0 0.00 0.28 0.00 89 1012.4
20260904134507 27 79 0.0 4.8 0.00 0.28 0.00 92 1012.2
20260904133007 27 73 0.0 6.4 0.00 0.28 0.00 93 1012.2
20260904131502 27 55 1.6 4.8 0.00 0.28 0.00 93 1012.1
20260904130002 27 76 0.0 0.0 0.00 0.28 0.00 93 1012.0
20260904124609 26 76 0.0 0.0 0.00 0.28 0.00 93 1011.9
20260904123056 26 76 0.0 0.0 0.00 0.28 0.00 93 1011.6
20260904121554 27 76 0.0 0.0 0.00 0.28 0.00 93 1011.3
20260904120104 26 76 0.0 0.0 0.00 0.28 0.00 93 1011.3
20260904114552 26 76 0.0 0.0 0.00 0.28 0.00 92 1011.3
20260904113053 26 76 0.0 0.0 0.00 0.28 0.00 92 1011.2
20260904111548 26 76 0.0 0.0 0.00 0.28 0.00 92 1011.3
20260904110047 26 76 0.0 0.0 0.00 0.28 0.00 92 1011.2
20260904104547 26 114 0.0 0.0 0.00 0.28 0.00 92 1011.3
20260904103044 27 114 0.0 0.0 0.00 0.28 0.00 91 1011.0
20260904101548 27 114 0.0 0.0 0.00 0.28 0.00 91 1010.9